Regional Weather Roundup
Issued by NWS

Home | Current Version | Previous Version | Graphics & Text | Print | Product List | Glossary On
Versions: 1 2 3 4 5 6 7 8 9 10 11 12 13 14 15 16 17 18 19 20 21 22 23 24 25 26 27 28 29 30 31 32 33 34 35 36 37 38 39 40 41 42 43 44 45 46 47 48 49 50
000
ASUS43 KDTX 172310
RWRMI
MICHIGAN HOURLY REGIONAL WEATHER ROUNDUP
NATIONAL WEATHER SERVICE DETROIT/PONTIAC MI
600 PM EST WED DEC 17 2014

NOTE: "FAIR" INDICATES FEW OR NO CLOUDS BELOW 12,000 FEET WITH NO
SIGNIFICANT WEATHER AND/OR OBSTRUCTION TO VISIBILITY.

MIZ047>049-052>055-059>063-066>070-074>076-081>083-180000-
SOUTHEAST LOWER MICHIGAN

CITY           SKY/WX    TMP DP  RH WIND       PRES   REMARKS
ADRIAN         CLOUDY    29  20  69 NW14G22   30.15R
ALMA           CLOUDY    27  22  79 W12G18    30.11R
ANN ARBOR      CLOUDY    29  18  63 NW15G23   30.11R
BAD AXE        LGT SNOW  28  27  96 W18G29    30.02R
DETROIT CITY   CLOUDY    32  19  58 W13G23    30.10R
DETROIT        CLOUDY    30  21  69 W17G26    30.11R
FLINT          CLOUDY    30  19  63 W20       30.09R
GROSSE ILE     CLOUDY    30  25  80 W8G21     30.10R
HILLSDALE      CLOUDY    28  21  74 NW16      30.12R
HOWELL         CLOUDY    28  22  80 NW13      30.09R

CITY           SKY/WX    TMP DP  RH WIND       PRES   REMARKS
JACKSON        CLOUDY    28  18  66 W14G24    30.11R
LAMBERTVILLE   CLOUDY    32  23  69 W9        30.15R
LANSING        CLOUDY    26  19  74 W12G24    30.13R
LAPEER         NOT AVBL
MASON          CLOUDY    27  20  75 W16G23    30.11R
MONROE         CLOUDY    30  23  74 W15G21    30.11R
MT. CLEMENS    CLOUDY    30  21  69 W14G21    30.06R
PONTIAC        FLURRIES  27  20  75 W13       30.07R
PORT HOPE        N/A     29  26  89 W12G22    29.98R
PORT HURON     CLOUDY    28  23  80 W7        30.06R
TRI CITIES     CLOUDY    29  21  72 W16       30.08R
YPSILANTI      CLOUDY    33  20  58 W20       30.11R
$$
MIZ043>046-050>051-056>058-064>065-071>073-077>080-180000-
SOUTHWEST LOWER MICHIGAN

CITY           SKY/WX    TMP DP  RH WIND       PRES   REMARKS
BATTLE CREEK   CLOUDY    29  18  63 NW14      30.15R
BENTON HARBOR  CLOUDY    28  19  69 W9        30.21R
BIG RAPIDS     FLURRIES  26  24  91 W8        30.09R
COLDWATER      CLOUDY    28  21  76 W12G17    30.15R
HOLLAND        CLOUDY    31  21  66 W12       30.18R
GRAND RAPIDS   FLURRIES  27  19  72 W14       30.15R
KALAMAZOO      CLOUDY    28  20  71 W15       30.16R
MARSHALL       CLOUDY    27  19  71 W14G21    30.13R
MUSKEGON       FLURRIES  29  19  66 W14G23    30.17R
$$
MIZ016>042-180000-
NORTHERN LOWER MICHIGAN

CITY           SKY/WX    TMP DP  RH WIND       PRES   REMARKS
ALPENA         LGT SNOW  27  24  89 NW6       29.99R FOG
BEAVER ISLAND  LGT SNOW  27  24  87 N10G16    30.07R
BELLAIRE       LGT SNOW  29  27  90 CALM      30.06R
CADILLAC       LGT SNOW  25  23  89 W10       30.03R
CHARLEVOIX     FLURRIES  28  26  89 NW14G20   30.08R
FRANKFORT      CLOUDY    30  27  88 NW9G17    30.10S
GAYLORD        LGT SNOW  25  23  92 NW8       29.99R FOG
GRAYLING       LGT SNOW  28  26  91 W9        30.01R
HARBOR SPRINGS LGT SNOW  27  23  84 NW6       30.04R
HOUGHTON LAKE  LGT SNOW  26  23  88 W12       30.01S VSB 1
MANISTEE       CLOUDY    28  21  74 NW12G21   30.13R
OSCODA         LGT SNOW  29  28  96 NW14      29.99R
PELLSTON       LGT SNOW  26  23  88 NW8       30.04R FOG
TRAVERSE CITY  LGT SNOW  30  27  88 W10       30.06R FOG
$$
MIZ007>008-015-180000-
EASTERN UPPER MICHIGAN

CITY           SKY/WX    TMP DP  RH WIND       PRES   REMARKS
KINROSS        CLOUDY    23  21  93 N10G16    30.02R
MACKINAC ISLAN LGT SNOW  26  25  97 N12G17    30.02R
NEWBERRY       CLOUDY    24  23  96 N9        30.05R FOG
S. S. MARIE    LGT SNOW  22  17  81 N8        30.01F
$$
MIZ004>006-011>014-085-180000-
CENTRAL UPPER MICHIGAN

CITY           SKY/WX    TMP DP  RH WIND       PRES   REMARKS
MANISTIQUE     CLOUDY    26  24  91 N10G18    30.08R
ESCANABA       CLOUDY    28  21  74 N14       30.13R
MENOMINEE      CLOUDY    28  18  64 NW9G17    30.16R
SAWYER-GWINN   CLOUDY    25  23  93 N16G22    30.11R
$$
MIZ001>003-009>011-084-180000-
WESTERN UPPER MICHIGAN

CITY           SKY/WX    TMP DP  RH WIND       PRES   REMARKS
IRON MOUNTAIN  CLOUDY    24  19  81 NW15      30.14R
HOUGHTON       MIX PCPN  23  19  85 N10       30.20R
COPPER HARBOR    N/A     27  21  78 E20       30.23R
IRONWOOD       CLOUDY    21  19  93 N8        30.22R
$$

ABBREVIATIONS USED IN REMARKS
   TC - TEMPERATURE IN CELSIUS
  WCI - WIND CHILL INDEX
   HX - HEAT INDEX
  VSB - VISIBILITY




USA.gov is the U.S. government's official web portal to all federal, state and local government web resources and services.